"startDT [UTC]","vpos","CH4 [ppm]","stdev(CH4) [ppm]","CO2 [ppm]","stdev(CO2) [ppm]","H2O [ppm]","stdev(H2O)","p_LGR [torr]","T_LGR [C]","mt1_LGR [us]","mt2_LGR [us]","T_ECpre [C]","T_EC1 [C]","T_EC2 [C]","p_inlet [hPa]","p_in [hPa]","p_out [hPa]","T_inlet [C]","RH_inlet [%]","dwpt_inlet [C]","T_vent [C]","RH_vent [%]","dwpt_vent [C]","flow_vent [l min-1]","flow_inlet [l min-1]","dwpt_sample [C]","T_room [C]"
2012-07-24 00:00:00,0.0,1.9645,0.0011,384.48,0.38,323.9,28.0,137.96,35.40,24.64,36.37,1.02,-25.19,-20.35,-53,563,-935,30.9,29.6,11.0,30.8,1.1,-30.6,5.73,2.32,-25.7,34.4
2012-07-24 00:01:00,0.0,1.9636,0.0009,384.73,0.39,335.9,31.9,137.96,35.41,24.64,36.38,1.01,-25.20,-20.86,-53,563,-936,30.9,29.0,10.8,30.8,1.1,-30.6,5.73,2.35,-25.7,34.4
2012-07-24 00:02:00,0.0,1.9635,0.0010,384.44,0.45,319.9,27.8,137.96,35.41,24.64,36.37,1.07,-25.21,-21.34,-53,562,-936,30.9,29.6,11.0,30.8,1.1,-30.6,5.73,2.33,-25.7,34.4
2012-07-24 00:03:00,0.0,1.9626,0.0011,384.51,0.36,323.4,27.0,137.96,35.42,24.65,36.38,1.10,-25.21,-21.79,-53,563,-935,30.9,29.4,10.9,30.8,1.0,-30.9,5.73,2.31,-25.7,34.5
2012-07-24 00:04:00,0.0,1.9617,0.0010,384.80,0.44,325.8,28.3,137.96,35.42,24.64,36.38,1.04,-25.22,-22.21,-53,563,-936,30.9,28.9,10.7,30.8,1.0,-30.9,5.73,2.34,-25.6,34.5
2012-07-24 00:05:00,0.0,1.9625,0.0009,384.42,0.33,317.9,27.3,137.96,35.42,24.64,36.38,1.00,-25.23,-22.60,-53,563,-936,30.9,29.3,11.0,30.8,1.0,-30.9,5.73,2.34,-25.7,34.6
2012-07-24 00:06:00,0.0,1.9611,0.0010,384.69,0.39,328.3,27.6,137.96,35.42,24.64,36.38,1.04,-25.24,-22.97,-53,563,-936,30.9,28.8,10.7,30.8,1.0,-30.9,5.73,2.31,-25.7,34.5
2012-07-24 00:07:00,0.0,1.9618,0.0010,384.70,0.37,329.3,25.9,137.96,35.43,24.64,36.38,1.08,-25.25,-23.31,-53,563,-936,30.9,28.7,10.6,30.9,1.0,-30.8,5.73,2.33,-25.7,34.5
2012-07-24 00:08:00,0.0,1.9611,0.0011,384.61,0.47,329.1,25.6,137.96,35.43,24.64,36.38,1.10,-25.26,-23.63,-53,563,-935,30.9,28.9,10.7,30.8,1.0,-30.9,5.73,2.34,-25.7,34.5
2012-07-24 00:09:00,0.0,1.9599,0.0010,384.58,0.41,322.1,27.3,137.96,35.44,24.65,36.38,1.02,-25.26,-23.93,-53,563,-936,30.9,29.0,10.8,30.8,1.1,-30.8,5.73,2.32,-25.7,34.5
2012-07-24 00:10:00,0.0,1.9625,0.0013,384.24,0.36,325.1,26.7,137.96,35.44,24.64,36.38,1.02,-25.27,-24.22,-53,563,-936,30.9,29.3,10.9,30.8,1.0,-31.0,5.73,2.32,-25.7,34.4
2012-07-24 00:11:00,0.0,1.9630,0.0012,383.96,0.36,321.8,25.6,137.96,35.44,24.64,36.38,1.07,-25.28,-24.50,-53,563,-936,30.9,29.7,11.1,30.8,1.0,-30.9,5.73,2.35,-25.7,34.4
2012-07-24 00:12:00,0.0,1.9597,0.0016,384.23,0.44,321.2,30.6,137.96,35.45,24.65,36.39,1.09,-25.30,-24.76,-53,563,-935,30.9,29.1,10.8,30.8,1.0,-30.8,5.73,2.33,-25.7,34.4
2012-07-24 00:13:00,0.0,1.9587,0.0010,384.69,0.36,326.7,27.1,137.96,35.45,24.64,36.38,1.03,-25.31,-25.01,-53,563,-936,30.9,28.8,10.7,30.8,1.0,-30.9,5.73,2.31,-25.7,34.4
2012-07-24 00:14:00,0.0,1.9598,0.0012,384.61,0.46,319.9,26.9,137.96,35.46,24.64,36.38,1.01,-25.31,-25.24,-53,563,-936,30.9,28.7,10.7,30.8,1.0,-30.9,5.73,2.34,-25.7,34.5
2012-07-24 00:15:00,0.0,1.9595,0.0009,384.69,0.38,325.7,27.2,137.96,35.46,24.64,36.38,1.00,-25.32,-25.20,-53,563,-936,30.9,28.5,10.5,30.9,1.0,-30.8,5.73,2.34,-25.7,34.5
2012-07-24 00:16:00,0.0,1.9585,0.0011,384.62,0.39,319.1,25.8,137.96,35.47,24.64,36.38,1.12,-25.33,-25.07,-53,563,-936,30.9,28.4,10.5,30.8,1.0,-30.9,5.73,2.31,-25.7,34.4
2012-07-24 00:17:00,0.0,1.9590,0.0013,384.66,0.40,321.8,26.8,137.96,35.47,24.65,36.38,1.08,-25.33,-25.23,-53,563,-936,30.9,28.4,10.5,30.8,1.0,-30.9,5.73,2.32,-25.7,34.4
2012-07-24 00:18:00,0.0,1.9605,0.0009,384.39,0.40,324.7,27.7,137.96,35.48,24.65,36.38,1.00,-25.34,-25.28,-53,563,-936,30.9,28.7,10.7,30.9,1.0,-30.8,5.73,2.35,-25.7,34.4
2012-07-24 00:19:00,0.0,1.9603,0.0011,384.34,0.47,330.9,27.1,137.96,35.48,24.64,36.38,1.02,-25.35,-25.08,-53,563,-936,30.9,28.7,10.6,30.9,1.0,-31.0,5.73,2.33,-25.7,34.5
2012-07-24 00:20:00,0.0,1.9578,0.0009,384.59,0.35,328.5,27.2,137.96,35.49,24.64,36.37,1.02,-25.36,-25.20,-53,563,-936,30.9,28.2,10.4,30.9,1.0,-31.1,5.73,2.31,-25.6,34.6
2012-07-24 00:21:00,0.0,1.9582,0.0009,384.13,0.37,328.8,28.6,137.96,35.49,24.64,36.38,1.05,-25.36,-25.36,-53,563,-936,31.0,28.7,10.6,30.9,1.0,-31.1,5.73,2.34,-25.6,34.6
2012-07-24 00:22:00,0.0,1.9581,0.0010,384.30,0.44,330.4,26.6,137.96,35.49,24.64,36.38,1.07,-25.37,-25.11,-53,563,-936,31.0,28.2,10.4,30.9,1.0,-31.1,5.73,2.34,-25.6,34.7
2012-07-24 00:23:00,0.0,1.9584,0.0009,384.13,0.39,328.1,30.5,137.96,35.50,24.64,36.38,1.09,-25.38,-25.18,-53,563,-936,31.0,28.3,10.5,30.9,1.0,-31.2,5.73,2.31,-25.6,34.7
2012-07-24 00:24:00,0.0,1.9583,0.0009,384.26,0.40,333.0,27.7,137.96,35.50,24.64,36.38,1.03,-25.39,-25.36,-53,563,-936,31.0,28.1,10.4,30.9,1.0,-31.1,5.73,2.33,-25.6,34.7
2012-07-24 00:25:00,0.0,1.9577,0.0009,384.05,0.33,329.6,27.6,137.96,35.51,24.65,36.38,1.03,-25.40,-25.22,-53,563,-936,31.0,28.1,10.4,30.9,1.0,-31.1,5.73,2.35,-25.6,34.7
2012-07-24 00:26:00,0.0,1.9575,0.0009,383.85,0.49,331.5,28.4,137.96,35.51,24.64,36.38,1.00,-25.41,-25.17,-53,563,-936,31.0,28.5,10.6,30.9,1.0,-31.1,5.73,2.32,-25.6,34.6
2012-07-24 00:27:00,0.0,1.9576,0.0011,383.78,0.36,329.0,25.8,137.96,35.52,24.64,36.38,1.04,-25.42,-25.34,-53,563,-936,31.0,28.4,10.5,30.9,1.0,-31.1,5.73,2.32,-25.6,34.5
2012-07-24 00:28:00,0.0,1.9571,0.0009,383.89,0.38,326.7,23.5,137.96,35.52,24.64,36.38,0.98,-25.42,-25.34,-53,563,-936,31.0,28.0,10.3,30.9,1.0,-31.0,5.73,2.35,-25.6,34.5
2012-07-24 00:29:00,0.0,1.9573,0.0010,384.13,0.36,328.4,25.5,137.96,35.53,24.64,36.38,0.93,-24.71,-25.17,-53,563,-936,31.0,27.7,10.2,30.9,1.0,-31.1,5.73,2.31,-25.7,34.6
2012-07-24 00:30:00,0.0,1.9570,0.0010,383.84,0.36,327.5,30.6,137.96,35.53,24.64,36.38,0.94,-22.93,-25.27,-53,563,-936,31.0,28.1,10.4,30.9,1.1,-30.2,5.73,2.32,-25.7,34.5
2012-07-24 00:31:00,0.0,1.9566,0.0010,383.72,0.33,328.6,27.0,137.96,35.54,24.64,36.37,0.95,-20.98,-25.37,-53,563,-936,31.0,28.2,10.4,31.0,1.2,-29.3,5.73,2.34,-25.7,34.5
2012-07-24 00:32:00,0.0,1.9552,0.0010,383.79,0.38,326.0,31.9,137.96,35.54,24.65,36.38,0.95,-19.06,-25.44,-53,563,-936,31.0,27.9,10.3,30.9,1.3,-28.7,5.73,2.33,-25.7,34.5
2012-07-24 00:33:00,0.0,1.9555,0.0009,383.81,0.32,328.0,28.9,137.96,35.55,24.64,36.38,0.97,-17.22,-25.49,-53,563,-937,31.0,27.8,10.2,31.0,1.3,-28.6,5.73,2.31,-25.7,34.5
2012-07-24 00:34:00,0.0,1.9554,0.0011,383.87,0.48,328.0,26.4,137.96,35.56,24.65,36.38,0.96,-15.48,-25.53,-53,563,-937,31.0,27.4,10.0,31.0,1.3,-28.6,5.73,2.34,-25.7,34.6
2012-07-24 00:35:00,0.0,1.9567,0.0008,383.79,0.38,324.3,29.7,137.96,35.56,24.65,36.38,0.96,-13.83,-25.57,-53,564,-936,31.0,27.7,10.1,30.9,1.3,-28.8,5.73,2.34,-25.7,34.6
2012-07-24 00:36:00,0.0,1.9560,0.0011,383.47,0.49,328.6,25.0,137.96,35.56,24.64,36.38,0.96,-12.27,-25.59,-53,564,-936,31.0,27.9,10.2,30.9,1.2,-29.0,5.73,2.31,-25.7,34.6
2012-07-24 00:37:00,0.0,1.9559,0.0010,383.74,0.38,330.5,28.7,137.96,35.56,24.64,36.38,0.96,-10.78,-25.61,-53,563,-936,31.0,27.5,10.1,30.9,1.2,-29.1,5.73,2.34,-25.7,34.6
2012-07-24 00:38:00,0.0,1.9568,0.0008,383.39,0.48,333.6,29.7,137.96,35.57,24.64,36.38,0.96,-9.38,-25.62,-53,563,-937,31.0,28.1,10.4,31.0,1.2,-29.2,5.73,2.35,-25.7,34.6
2012-07-24 00:39:00,0.0,1.9569,0.0008,382.87,0.35,335.8,29.7,137.96,35.57,24.65,36.38,0.95,-8.05,-25.64,-53,563,-937,31.0,28.7,10.7,30.9,1.2,-29.5,5.73,2.32,-25.7,34.6
2012-07-24 00:40:00,0.0,1.9543,0.0013,383.19,0.40,338.6,28.5,137.96,35.58,24.64,36.39,0.94,-6.80,-25.64,-53,563,-937,31.0,27.5,10.1,31.0,1.2,-29.6,5.73,2.33,-25.7,34.6
2012-07-24 00:41:00,0.0,1.9515,0.0009,383.52,0.43,326.0,33.9,137.96,35.58,24.64,36.38,0.93,-5.61,-25.65,-53,563,-936,31.0,27.0,9.8,30.9,1.2,-29.8,5.73,2.35,-25.6,34.6
2012-07-24 00:42:00,0.0,1.9513,0.0010,383.58,0.36,332.2,26.8,137.96,35.59,24.64,36.38,0.92,-4.49,-25.66,-53,563,-936,31.0,26.8,9.7,31.0,1.1,-29.9,5.73,2.32,-25.6,34.5
2012-07-24 00:43:00,0.0,1.9524,0.0012,383.41,0.42,333.9,29.3,137.96,35.59,24.64,36.38,0.95,-3.41,-25.66,-53,563,-936,31.0,27.2,9.9,31.0,1.1,-30.0,5.73,2.32,-25.6,34.6
2012-07-24 00:44:00,0.0,1.9531,0.0009,383.29,0.45,337.0,30.3,137.96,35.60,24.65,36.38,0.94,-2.38,-25.67,-53,563,-937,31.0,27.0,9.8,30.9,1.1,-30.2,5.73,2.35,-25.6,34.6
2012-07-24 00:45:00,0.0,1.9541,0.0008,383.47,0.37,339.8,26.9,137.96,35.60,24.64,36.39,0.93,-1.40,-25.67,-53,563,-937,31.0,26.8,9.7,31.0,1.1,-30.2,5.73,2.33,-25.6,34.6
2012-07-24 00:46:00,0.0,1.9536,0.0010,383.27,0.41,344.0,31.7,137.96,35.60,24.64,36.38,0.94,-0.48,-25.67,-53,563,-937,31.0,27.1,9.8,30.9,1.1,-30.3,5.73,2.32,-25.6,34.7
2012-07-24 00:47:00,0.0,1.9534,0.0008,383.08,0.40,343.7,25.8,137.96,35.61,24.65,36.38,0.95,0.40,-25.66,-53,563,-937,31.0,27.6,10.1,31.0,1.1,-30.6,5.73,2.34,-25.6,34.7
2012-07-24 00:48:00,0.0,1.9542,0.0011,382.83,0.42,342.4,29.8,137.96,35.62,24.64,36.39,0.96,1.23,-25.65,-53,563,-936,31.0,27.6,10.1,31.0,1.1,-30.5,5.73,2.35,-25.6,34.7
2012-07-24 00:49:00,0.0,1.9553,0.0009,383.29,0.37,338.2,25.7,137.96,35.62,24.64,36.38,0.95,2.00,-25.65,-53,563,-937,31.0,27.1,9.9,31.0,1.1,-30.6,5.73,2.32,-25.6,34.8
2012-07-24 00:50:00,0.0,1.9556,0.0008,383.19,0.40,339.7,21.1,137.96,35.62,24.65,36.38,0.96,2.66,-25.64,-53,563,-937,31.1,27.2,10.0,31.0,1.1,-30.8,5.73,2.33,-25.6,34.8
2012-07-24 00:51:00,0.0,1.9549,0.0015,383.37,0.40,346.5,29.0,137.96,35.63,24.64,36.37,0.95,2.96,-25.63,-53,563,-937,31.1,27.1,9.9,31.0,1.0,-30.8,5.73,2.35,-25.6,34.8
2012-07-24 00:52:00,0.0,1.9534,0.0010,383.58,0.45,341.3,28.6,137.96,35.63,24.64,36.38,0.97,3.14,-25.63,-53,563,-937,31.1,26.8,9.7,31.0,1.0,-30.8,5.73,2.33,-25.3,34.8
2012-07-24 00:53:00,0.0,1.9528,0.0010,383.12,0.42,344.5,34.9,137.96,35.63,24.65,36.38,0.96,3.54,-25.62,-53,563,-937,31.1,27.0,9.9,31.0,1.0,-30.9,5.73,2.32,-25.1,34.8
2012-07-24 00:54:00,0.0,1.9527,0.0010,383.33,0.41,334.7,29.1,137.96,35.64,24.64,36.38,0.97,4.13,-25.61,-53,563,-937,31.1,26.7,9.7,31.0,1.0,-31.1,5.73,2.34,-25.1,34.7
2012-07-24 00:55:00,0.0,1.9519,0.0010,383.39,0.43,339.2,28.0,137.96,35.64,24.64,36.38,0.96,4.71,-25.60,-53,563,-937,31.1,26.6,9.6,31.0,1.0,-31.1,5.73,2.34,-25.1,34.7
2012-07-24 00:56:00,0.0,1.9540,0.0011,383.61,0.37,339.4,24.9,137.96,35.64,24.64,36.38,0.96,5.28,-25.59,-53,563,-937,31.1,26.6,9.6,31.0,1.0,-31.1,5.73,2.32,-25.2,34.6
2012-07-24 00:57:00,0.0,1.9528,0.0007,383.26,0.46,343.3,28.1,137.96,35.64,24.65,36.39,0.97,5.81,-25.58,-53,563,-937,31.1,27.0,9.8,31.0,1.0,-31.0,5.73,2.34,-25.2,34.7
2012-07-24 00:58:00,0.0,1.9528,0.0009,383.01,0.44,345.6,29.9,137.96,35.65,24.65,36.39,0.96,6.31,-25.57,-53,563,-937,31.1,27.1,9.9,31.0,1.0,-31.0,5.73,2.35,-25.2,34.7
2012-07-24 00:59:00,0.0,1.9521,0.0009,383.39,0.40,345.1,25.3,137.96,35.65,24.65,36.38,0.97,6.79,-25.56,-53,563,-937,31.1,26.9,9.8,31.0,1.0,-31.1,5.73,2.32,-25.2,34.8
2012-07-24 01:00:00,0.0,1.9502,0.0010,383.56,0.47,339.0,25.5,137.96,35.66,24.64,36.38,0.96,7.26,-25.55,-53,564,-938,31.1,26.6,9.6,31.0,1.0,-31.1,5.73,2.33,-25.2,34.7
2012-07-24 01:01:00,0.0,1.9505,0.0010,383.64,0.42,344.4,31.0,137.96,35.66,24.65,36.39,0.96,7.71,-25.54,-53,563,-938,31.1,26.1,9.3,31.0,1.0,-31.0,5.73,2.35,-25.2,34.8
2012-07-24 01:02:00,0.0,1.9505,0.0008,383.76,0.41,341.0,27.4,137.96,35.67,24.65,36.38,0.97,8.15,-25.53,-53,564,-938,31.1,26.1,9.4,31.0,1.0,-31.0,5.73,2.33,-25.2,34.8
2012-07-24 01:03:00,0.0,1.9510,0.0010,383.49,0.41,347.4,21.1,137.96,35.67,24.64,36.38,0.97,8.57,-25.52,-53,563,-938,31.1,26.3,9.5,31.0,1.0,-31.1,5.73,2.31,-25.2,34.8
2012-07-24 01:04:00,0.0,1.9512,0.0009,383.43,0.42,352.0,28.3,137.96,35.67,24.64,36.38,0.97,8.97,-25.51,-53,564,-937,31.1,26.7,9.7,31.0,1.0,-31.1,5.73,2.35,-25.2,34.8
2012-07-24 01:05:00,0.0,1.9522,0.0015,383.44,0.47,345.6,32.1,137.96,35.68,24.64,36.38,0.96,9.36,-25.49,-53,563,-937,31.1,26.5,9.6,31.0,1.0,-31.0,5.73,2.34,-25.2,34.8
2012-07-24 01:06:00,0.0,1.9538,0.0011,383.59,0.40,347.1,27.4,137.96,35.68,24.65,36.38,0.97,9.75,-25.48,-53,564,-937,31.1,26.3,9.5,31.1,1.0,-31.0,5.73,2.31,-25.2,34.8
2012-07-24 01:07:00,0.0,1.9540,0.0007,383.45,0.48,350.0,26.0,137.96,35.69,24.64,36.39,0.97,10.12,-25.47,-53,563,-937,31.1,26.5,9.6,31.1,1.0,-31.1,5.73,2.34,-25.2,34.9
2012-07-24 01:08:00,0.0,1.9534,0.0010,383.17,0.45,347.3,28.3,137.96,35.69,24.64,36.39,0.95,10.47,-25.46,-53,564,-937,31.1,26.8,9.8,31.1,1.0,-31.1,5.73,2.35,-25.2,34.8
2012-07-24 01:09:00,0.0,1.9523,0.0010,383.22,0.43,344.8,28.3,137.95,35.70,24.64,36.39,0.99,10.82,-25.45,-53,564,-937,31.1,26.5,9.6,31.1,1.0,-31.0,5.73,2.32,-25.2,34.9
2012-07-24 01:10:00,0.0,1.9501,0.0013,383.52,0.47,341.7,30.3,137.96,35.70,24.64,36.39,0.98,11.16,-25.45,-53,564,-938,31.1,25.9,9.3,31.1,1.0,-31.0,5.73,2.33,-25.2,34.9
2012-07-24 01:11:00,0.0,1.9493,0.0008,383.76,0.39,345.3,26.5,137.96,35.70,24.65,36.38,0.97,11.48,-25.43,-53,564,-938,31.1,25.9,9.3,31.1,1.0,-31.1,5.73,2.35,-25.2,34.9
2012-07-24 01:12:00,0.0,1.9512,0.0009,383.56,0.43,345.9,28.6,137.96,35.70,24.64,36.38,0.96,11.79,-25.43,-53,564,-938,31.1,26.1,9.4,31.1,1.0,-31.0,5.73,2.33,-25.2,34.9
2012-07-24 01:13:00,0.0,1.9536,0.0010,383.39,0.32,342.3,22.2,137.96,35.70,24.64,36.38,0.97,12.09,-25.42,-53,564,-938,31.2,26.2,9.5,31.1,1.0,-31.0,5.73,2.32,-25.2,34.9
2012-07-24 01:14:00,0.0,1.9533,0.0009,383.56,0.41,342.6,27.5,137.95,35.70,24.65,36.38,0.99,12.38,-25.41,-53,564,-938,31.1,26.0,9.3,31.1,1.0,-31.0,5.73,2.35,-25.2,34.9
2012-07-24 01:15:00,0.0,1.9527,0.0008,383.72,0.46,340.4,30.3,137.96,35.70,24.65,36.38,0.97,12.66,-25.40,-53,564,-938,31.1,26.0,9.4,31.1,1.0,-31.0,5.73,2.34,-25.2,34.8
2012-07-24 01:16:00,0.0,1.9522,0.0014,383.08,0.45,346.0,28.7,137.96,35.70,24.65,36.38,0.98,12.93,-25.39,-53,564,-937,31.2,26.8,9.8,31.1,1.0,-31.0,5.73,2.31,-25.2,34.8
2012-07-24 01:17:00,0.0,1.9497,0.0011,383.38,0.46,339.3,25.3,137.96,35.70,24.65,36.39,0.97,13.19,-25.38,-53,564,-937,31.1,25.9,9.3,31.1,1.0,-31.0,5.73,2.34,-25.2,34.8
2012-07-24 01:18:00,0.0,1.9476,0.0015,383.81,0.43,342.1,34.5,137.95,35.70,24.65,36.39,0.99,13.44,-25.37,-53,564,-937,31.1,25.5,9.0,31.1,1.0,-31.0,5.73,2.34,-25.3,34.8
2012-07-24 01:19:00,0.0,1.9481,0.0013,383.58,0.38,340.8,31.2,137.96,35.71,24.65,36.39,0.98,13.68,-25.36,-53,564,-937,31.2,26.0,9.3,31.1,1.0,-31.0,5.73,2.31,-25.2,34.8
2012-07-24 01:20:00,0.0,1.9502,0.0013,383.06,0.40,335.7,24.9,137.96,35.71,24.65,36.39,0.97,13.91,-25.36,-53,564,-937,31.2,26.7,9.8,31.1,1.0,-31.1,5.73,2.33,-25.2,34.8
2012-07-24 01:21:00,0.0,1.9504,0.0013,382.89,0.39,341.3,26.1,137.96,35.71,24.64,36.38,0.99,14.13,-25.35,-53,564,-937,31.2,26.8,9.8,31.1,1.0,-31.1,5.73,2.35,-25.3,34.9
2012-07-24 01:22:00,0.0,1.9428,0.0024,383.59,0.45,337.6,32.2,137.95,35.71,24.64,36.38,0.99,14.34,-25.34,-53,564,-938,31.2,25.1,8.9,31.1,1.0,-31.0,5.73,2.32,-25.2,34.9
2012-07-24 01:23:00,0.0,1.9418,0.0013,383.91,0.43,333.3,33.4,137.96,35.72,24.64,36.39,0.98,14.54,-25.34,-53,564,-938,31.2,24.9,8.8,31.1,1.0,-30.9,5.73,2.33,-25.3,34.9
2012-07-24 01:24:00,0.0,1.9419,0.0011,383.84,0.38,340.0,29.8,137.96,35.72,24.64,36.39,0.99,14.74,-25.33,-53,564,-938,31.2,24.8,8.7,31.1,1.0,-31.0,5.73,2.35,-25.3,34.9
2012-07-24 01:25:00,0.0,1.9426,0.0011,383.66,0.39,333.8,29.6,137.96,35.72,24.65,36.38,0.98,14.93,-25.31,-53,564,-938,31.2,25.2,8.9,31.2,1.0,-31.0,5.73,2.33,-25.3,34.9
2012-07-24 01:26:00,0.0,1.9408,0.0010,383.59,0.39,341.8,29.9,137.96,35.72,24.65,36.39,0.98,15.11,-25.31,-53,564,-938,31.2,24.8,8.7,31.1,1.0,-31.0,5.73,2.31,-25.2,34.9
2012-07-24 01:27:00,0.0,1.9409,0.0010,383.88,0.47,338.3,28.0,137.95,35.73,24.65,36.39,0.98,15.28,-25.30,-53,564,-938,31.2,24.5,8.5,31.2,1.0,-31.0,5.73,2.34,-25.3,34.9
2012-07-24 01:28:00,0.0,1.9414,0.0009,383.67,0.43,335.4,20.1,137.96,35.73,24.64,36.38,0.96,15.44,-25.30,-53,564,-937,31.2,24.7,8.6,31.2,1.0,-31.1,5.73,2.34,-25.3,35.0
2012-07-24 01:29:00,0.0,1.9402,0.0010,383.52,0.44,339.8,30.8,137.96,35.74,24.65,36.38,0.97,15.60,-25.29,-53,564,-937,31.2,25.3,9.0,31.2,1.0,-31.1,5.73,2.32,-25.3,35.0
2012-07-24 01:30:00,0.0,1.9392,0.0012,383.10,0.32,339.7,26.0,137.95,35.74,24.65,36.39,0.97,15.75,-25.29,-53,564,-937,31.2,25.2,9.0,31.2,1.0,-30.9,5.73,2.33,-25.3,35.0
2012-07-24 01:31:00,0.0,1.9377,0.0011,383.66,0.46,337.9,25.6,137.96,35.74,24.64,36.38,0.97,15.89,-25.28,-53,564,-937,31.2,24.3,8.4,31.2,1.0,-31.0,5.73,2.34,-25.3,35.0
2012-07-24 01:32:00,0.0,1.9365,0.0013,383.81,0.39,345.8,30.5,137.96,35.74,24.65,36.38,0.97,16.03,-25.27,-53,564,-937,31.2,24.2,8.3,31.2,1.0,-31.0,5.73,2.31,-25.3,34.9
2012-07-24 01:33:00,0.0,1.9369,0.0010,383.59,0.52,340.6,29.0,137.96,35.74,24.64,36.38,0.96,16.16,-25.27,-53,564,-938,31.2,24.7,8.7,31.2,1.0,-31.0,5.73,2.33,-25.3,34.8
2012-07-24 01:34:00,0.0,1.9357,0.0015,383.44,0.48,338.6,30.8,137.96,35.75,24.65,36.38,0.97,16.29,-25.27,-53,564,-938,31.2,24.6,8.6,31.2,1.0,-30.9,5.73,2.35,-25.3,34.9
2012-07-24 01:35:00,0.0,1.9339,0.0015,383.43,0.44,337.2,26.4,137.95,35.75,24.65,36.39,0.97,16.41,-25.26,-53,564,-938,31.3,24.6,8.6,31.2,1.0,-31.0,5.73,2.32,-25.3,35.0
2012-07-24 01:36:00,0.0,1.9311,0.0009,383.70,0.41,331.1,30.5,137.96,35.75,24.65,36.38,0.97,16.52,-25.26,-53,564,-938,31.3,24.4,8.5,31.2,1.0,-31.0,5.73,2.32,-25.3,35.0
2012-07-24 01:37:00,0.0,1.9307,0.0010,383.84,0.45,340.5,26.8,137.96,35.76,24.64,36.38,0.97,16.63,-25.25,-53,564,-938,31.2,24.1,8.3,31.2,1.0,-31.0,5.73,2.34,-25.3,34.9
2012-07-24 01:38:00,0.0,1.9319,0.0013,383.86,0.37,334.5,26.1,137.95,35.76,24.64,36.38,0.98,16.74,-25.25,-53,564,-938,31.2,23.9,8.2,31.2,1.0,-31.0,5.73,2.33,-25.3,34.8
2012-07-24 01:39:00,0.0,1.9335,0.0010,383.72,0.45,330.9,29.3,137.96,35.77,24.64,36.38,0.97,16.84,-25.23,-53,564,-938,31.3,24.3,8.5,31.2,1.0,-31.0,5.73,2.31,-25.4,34.8
2012-07-24 01:40:00,0.0,1.9327,0.0014,383.75,0.42,337.1,27.5,137.96,35.77,24.64,36.38,0.97,16.93,-25.23,-53,564,-938,31.2,24.1,8.3,31.2,1.0,-31.0,5.73,2.34,-25.4,34.9
2012-07-24 01:41:00,0.0,1.9318,0.0016,383.73,0.50,338.3,29.2,137.96,35.77,24.65,36.38,0.98,17.04,-25.23,-53,564,-938,31.2,24.3,8.5,31.2,1.0,-31.0,5.73,2.33,-25.4,35.0
2012-07-24 01:42:00,0.0,1.9303,0.0017,383.91,0.41,338.3,23.1,137.95,35.78,24.64,36.38,0.99,17.12,-25.22,-53,564,-938,31.2,24.2,8.4,31.2,1.0,-31.0,5.73,2.31,-25.3,35.0
2012-07-24 01:43:00,0.0,1.9277,0.0010,384.41,0.36,341.3,24.0,137.96,35.78,24.65,36.38,0.98,17.21,-25.22,-53,564,-937,31.3,23.8,8.2,31.2,1.0,-31.0,5.73,2.33,-25.3,35.0
2012-07-24 01:44:00,0.0,1.9278,0.0010,383.99,0.48,332.4,24.9,137.96,35.79,24.64,36.39,0.98,17.29,-25.22,-53,564,-937,31.3,24.0,8.3,31.2,1.0,-31.0,5.73,2.34,-25.3,35.0
2012-07-24 01:45:00,0.0,1.9257,0.0013,384.67,0.37,339.0,29.6,137.96,35.79,24.65,36.38,0.98,17.37,-25.21,-53,564,-937,31.3,23.3,7.8,31.2,1.0,-31.0,5.73,2.31,-25.3,35.1
2012-07-24 01:46:00,0.0,1.9253,0.0012,384.56,0.42,352.1,32.2,137.96,35.80,24.65,36.38,0.99,17.45,-25.20,-53,564,-937,31.3,23.5,7.9,31.2,1.0,-31.0,5.73,2.32,-25.3,35.0
2012-07-24 01:47:00,0.0,1.9264,0.0009,384.30,0.44,341.9,23.1,137.96,35.80,24.65,36.37,0.98,17.52,-25.20,-53,564,-937,31.3,24.0,8.3,31.2,1.0,-31.0,5.73,2.35,-25.3,35.1
2012-07-24 01:48:00,0.0,1.9290,0.0016,384.00,0.35,341.8,26.1,137.95,35.81,24.64,36.38,0.97,17.58,-25.20,-53,564,-937,31.3,24.1,8.3,31.2,1.0,-31.0,5.73,2.32,-25.3,35.1
2012-07-24 01:49:00,0.0,1.9309,0.0012,383.77,0.45,339.4,25.9,137.95,35.81,24.64,36.38,1.00,17.65,-25.20,-53,564,-937,31.3,24.7,8.7,31.2,1.0,-31.0,5.73,2.32,-25.3,35.1
2012-07-24 01:50:00,0.0,1.9312,0.0014,383.41,0.44,340.6,23.3,137.96,35.82,24.64,36.39,1.01,17.71,-25.19,-53,564,-938,31.3,25.4,9.1,31.2,1.0,-31.0,5.73,2.35,-25.3,35.1
2012-07-24 01:51:00,0.0,1.9337,0.0010,383.14,0.51,344.7,26.5,137.95,35.83,24.64,36.38,0.99,17.78,-25.19,-53,564,-938,31.3,24.9,8.8,31.2,1.0,-31.0,5.73,2.33,-25.3,35.2
2012-07-24 01:52:00,0.0,1.9332,0.0009,384.01,0.43,349.2,26.3,137.95,35.83,24.65,36.38,1.00,17.84,-25.19,-53,564,-938,31.3,23.9,8.3,31.3,1.0,-31.0,5.73,2.31,-25.4,35.1
2012-07-24 01:53:00,0.0,1.9337,0.0009,383.87,0.43,345.4,29.8,137.96,35.84,24.64,36.39,0.99,17.89,-25.18,-53,564,-938,31.3,24.1,8.4,31.3,1.0,-31.0,5.73,2.34,-25.4,35.1
2012-07-24 01:54:00,0.0,1.9323,0.0009,383.91,0.40,346.6,28.9,137.95,35.84,24.64,36.38,1.00,17.94,-25.18,-53,564,-938,31.3,24.0,8.3,31.3,1.0,-31.0,5.73,2.34,-25.4,35.0
2012-07-24 01:55:00,0.0,1.9327,0.0009,383.56,0.41,350.8,27.8,137.96,35.84,24.65,36.39,0.99,17.99,-25.18,-53,564,-938,31.3,24.7,8.7,31.3,1.0,-31.0,5.73,2.31,-25.4,35.0
2012-07-24 01:56:00,0.0,1.9323,0.0011,383.51,0.40,344.1,30.2,137.95,35.84,24.64,36.39,0.98,18.04,-25.17,-53,564,-938,31.3,24.5,8.6,31.3,1.0,-31.0,5.73,2.33,-25.4,35.0
2012-07-24 01:57:00,0.0,1.9323,0.0008,383.38,0.51,344.8,27.0,137.95,35.84,24.65,36.39,0.98,18.09,-25.17,-53,564,-938,31.3,25.1,9.0,31.3,1.0,-30.9,5.73,2.34,-25.4,34.9
2012-07-24 01:58:00,0.0,1.9302,0.0016,383.79,0.58,341.6,28.0,137.95,35.84,24.64,36.38,0.97,18.13,-25.17,-53,564,-938,31.3,24.0,8.3,31.3,1.0,-31.0,5.73,2.31,-25.4,34.9
2012-07-24 01:59:00,0.0,1.9312,0.0012,383.76,0.41,339.6,27.6,137.95,35.84,24.64,36.38,0.97,18.17,-25.17,-53,564,-938,31.3,24.1,8.4,31.3,1.0,-31.0,5.73,2.33,-25.4,34.9
2012-07-24 02:00:00,0.0,1.9327,0.0009,383.67,0.39,349.2,23.0,137.95,35.85,24.64,36.38,0.97,18.21,-25.17,-53,564,-938,31.3,24.3,8.5,31.2,1.0,-31.0,5.73,2.34,-25.5,34.9
2012-07-24 02:01:00,0.0,1.9322,0.0011,383.85,0.44,340.4,24.9,137.95,35.85,24.65,36.39,0.97,18.25,-25.16,-53,564,-938,31.3,23.9,8.3,31.3,1.0,-31.0,5.73,2.31,-25.5,35.0
2012-07-24 02:02:00,0.0,1.9317,0.0010,383.77,0.31,343.8,28.8,137.96,35.85,24.64,36.38,0.97,18.30,-25.16,-53,564,-938,31.3,24.2,8.4,31.3,1.0,-30.9,5.73,2.32,-25.5,35.0
2012-07-24 02:03:00,0.0,1.9291,0.0013,383.80,0.36,336.3,28.1,137.95,35.85,24.64,36.38,0.97,18.32,-25.16,-53,564,-938,31.3,24.0,8.3,31.3,1.0,-30.9,5.73,2.34,-25.4,34.9
2012-07-24 02:04:00,0.0,1.9239,0.0014,384.36,0.46,336.8,26.3,137.95,35.86,24.64,36.38,0.97,18.36,-25.16,-53,564,-938,31.3,23.5,8.0,31.3,1.0,-31.0,5.73,2.32,-25.5,34.9
2012-07-24 02:05:00,0.0,1.9201,0.0012,384.57,0.41,342.0,24.8,137.95,35.86,24.65,36.38,0.98,18.39,-25.16,-53,564,-938,31.3,23.2,7.8,31.3,1.0,-31.0,5.73,2.31,-25.5,34.8
2012-07-24 02:06:00,0.0,1.9215,0.0010,384.35,0.40,340.7,23.5,137.95,35.87,24.64,36.38,0.98,18.42,-25.16,-53,564,-938,31.3,23.6,8.0,31.3,1.0,-30.9,5.73,2.34,-25.5,34.9
2012-07-24 02:07:00,0.0,1.9221,0.0008,384.27,0.46,342.0,28.4,137.95,35.87,24.65,36.38,0.97,18.46,-25.16,-53,564,-938,31.3,24.0,8.3,31.3,1.0,-30.9,5.73,2.33,-25.5,34.8
2012-07-24 02:08:00,0.0,1.9228,0.0009,383.95,0.38,338.1,29.0,137.95,35.87,24.65,36.39,0.98,18.48,-25.16,-53,564,-938,31.3,23.6,8.1,31.3,1.0,-31.0,5.73,2.31,-25.5,34.8
2012-07-24 02:09:00,0.0,1.9228,0.0010,384.14,0.45,342.6,26.7,137.95,35.88,24.64,36.39,0.97,18.51,-25.16,-53,564,-938,31.3,23.9,8.3,31.3,1.0,-31.0,5.73,2.33,-25.5,34.8
2012-07-24 02:10:00,0.0,1.9200,0.0013,383.98,0.39,347.4,23.9,137.95,35.88,24.65,36.38,0.99,18.54,-25.15,-53,564,-938,31.3,24.3,8.5,31.3,1.0,-30.9,5.73,2.34,-25.5,34.9
2012-07-24 02:11:00,0.0,1.9222,0.0022,383.53,0.50,341.7,31.9,137.95,35.88,24.65,36.39,0.98,18.57,-25.14,-53,564,-938,31.3,24.4,8.6,31.3,1.0,-30.9,5.73,2.31,-25.5,34.9
2012-07-24 02:12:00,0.0,1.9167,0.0015,384.46,0.45,345.2,27.2,137.95,35.89,24.65,36.38,1.00,18.60,-25.14,-53,564,-938,31.3,23.6,8.1,31.3,1.0,-30.9,5.73,2.32,-25.5,34.9
2012-07-24 02:13:00,0.0,1.9208,0.0012,384.42,0.44,347.8,28.8,137.95,35.90,24.65,36.38,0.99,18.61,-25.15,-53,564,-938,31.3,24.5,8.6,31.3,1.0,-30.9,5.73,2.34,-25.5,34.9
2012-07-24 02:14:00,0.0,1.9231,0.0013,383.46,0.46,343.2,29.4,137.95,35.90,24.65,36.38,0.98,18.64,-25.14,-53,564,-938,31.3,25.0,8.9,31.3,1.0,-31.0,5.73,2.31,-25.5,34.9
2012-07-24 02:15:00,0.0,1.9235,0.0009,383.50,0.45,350.9,25.8,137.95,35.91,24.64,36.38,1.00,18.66,-25.14,-53,564,-938,31.4,24.5,8.6,31.3,1.0,-30.9,5.73,2.32,-25.5,34.8
2012-07-24 02:16:00,0.0,1.9237,0.0009,383.77,0.44,342.7,22.8,137.95,35.91,24.64,36.38,1.01,18.68,-25.14,-53,564,-938,31.3,24.4,8.6,31.3,1.0,-31.0,5.73,2.35,-25.5,34.9
2012-07-24 02:17:00,0.0,1.9181,0.0023,384.40,0.44,344.9,27.0,137.95,35.92,24.64,36.38,0.99,18.70,-25.14,-53,564,-938,31.3,24.1,8.4,31.3,1.0,-31.0,5.73,2.32,-25.5,34.9
2012-07-24 02:18:00,0.0,1.9133,0.0014,384.61,0.44,350.5,25.8,137.95,35.93,24.65,36.38,1.00,18.71,-25.13,-53,564,-938,31.3,23.3,7.9,31.3,1.0,-30.9,5.73,2.31,-25.5,35.0
2012-07-24 02:19:00,0.0,1.9135,0.0015,384.83,0.41,341.9,29.6,137.95,35.93,24.64,36.38,0.99,18.73,-25.13,-53,564,-938,31.4,23.3,7.9,31.3,1.0,-31.0,5.73,2.34,-25.5,35.0